Printer-friendly version

IAU Minor Planet Center

Minor Planet Center

MPEC 2006-K62 : 2006 KT67

The following Minor Planet Electronic Circular may be linked-to from your own Web pages, but must not otherwise be redistributed electronically.


Read MPEC 2006-K61 Read MPEC 2006-K63


M.P.E.C. 2006-K62                                Issued 2006 May 27, 19:02 UT

     The Minor Planet Electronic Circulars contain information on unusual
         minor planets and routine data on comets.  They are published
   on behalf of Commission 20 of the International Astronomical Union by the
          Minor Planet Center, Smithsonian Astrophysical Observatory,
                          Cambridge, MA 02138, U.S.A.

                  Supported in part by the Brinson Foundation
                  Supported in part by the TABASGO Foundation
             Prepared using the Tamkin Foundation Computer Network

                              MPC@CFA.HARVARD.EDU
          URL http://cfa-www.harvard.edu/iau/mpc.html  ISSN 1523-6714

                                   2006 KT67

Observations:
     K06K67T  C2006 05 26.44256 21 27 49.71 -12 07 30.1          20.9 V EK062G96
     K06K67T  C2006 05 26.44760 21 27 48.85 -12 07 40.1          20.8 V EK062G96
     K06K67T  C2006 05 26.45270 21 27 48.02 -12 07 49.9          20.8 V EK062G96
     K06K67T  C2006 05 26.45773 21 27 47.16 -12 07 59.3          20.9 V EK062G96
     K06K67T  C2006 05 26.46340 21 27 46.15 -12 08 11.1          21.4 V EK062G96
     K06K67T  C2006 05 26.46393 21 27 46.08 -12 08 11.7          21.3 V EK062G96
     K06K67T  C2006 05 26.46448 21 27 46.00 -12 08 13.0          21.0 V EK062G96
     K06K67T  C2006 05 26.46502 21 27 45.90 -12 08 14.3          20.9 V EK062G96
     K06K67T* C2006 05 27.44484 21 25 00.84 -12 40 18.9          21.4 V EK062G96
     K06K67T  C2006 05 27.44873 21 25 00.22 -12 40 26.4          21.5 V EK062G96
     K06K67T  C2006 05 27.45264 21 24 59.47 -12 40 34.6          21.2 V EK062G96
     K06K67T  C2006 05 27.45653 21 24 58.82 -12 40 42.6          21.4 V EK062G96

Observer details:
G96 Mt. Lemmon Survey.  Observers E. J. Christensen, R. A. Kowalski,
    A. D. Grauer.  Measurers E. C. Beshore, E. J. Christensen, G. J. Garradd,
    A. R. Gibbs, A. D. Grauer, R. E. Hill, R. A. Kowalski, S. M. Larson,
    R. H. McNaught.  1.5-m reflector + CCD.

Orbital elements:
2006 KT67                                                Earth MOID = 0.1112 AU
Epoch 2006 May 25.0 TT = JDT 2453880.5                  MPC
M  41.39361              (2000.0)            P               Q
n   0.66653295     Peri.   25.12699     -0.43477028     -0.69361380
a   1.2979411      Node    95.68741     +0.69755172     -0.66275751
e   0.8774357      Incl.   35.25304     +0.56955808     +0.28222753
P   1.48           H   19.6           G   0.15
From 12 observations 2006 May 26-27.

Ephemeris:
2006 KT67                a,e,i = 1.30, 0.88, 35                  q = 0.1591
Date    TT    R. A. (2000) Decl.     Delta      r     Elong.  Phase     V
2006 05 25    21 31.71   -11 21.0    0.678    1.331   102.0    48.1    21.2
2006 06 04    21 00.53   -17 02.2    0.647    1.454   120.5    37.0    21.0
2006 06 14    20 19.21   -23 03.2    0.640    1.566   140.9    24.2    20.7
2006 06 24    19 31.02   -28 14.2    0.673    1.668   161.2    11.4    20.6
2006 07 04    18 43.97   -31 36.7    0.749    1.761   171.1     5.1    20.6
2006 07 14    18 05.76   -33 13.5    0.865    1.846   157.7    12.1    21.3
2006 07 24    17 39.04   -33 45.0    1.011    1.924   143.4    18.4    22.0

Kyle E. Smalley              (C) Copyright 2006 MPC           M.P.E.C. 2006-K62

Read MPEC 2006-K61 Read MPEC 2006-K63


Our Web policy. Index to the CBAT/MPC/ICQ pages.


Valid HTML 4.01!